Weather History for KLWA - May, 2013

Change the Weather History Date:

Sunday, May 12, 2013

  Actual Average (KBIV) Record (KBIV)
Temperature  
Mean Temperature 38 °F 57 °F  
Max Temperature 43 °F 68 °F 88 °F (1993)
Min Temperature 32 °F 47 °F 29 °F (1976)
Degree Days  
Heating Degree Days 28 8  
Month to date heating degree days 118  
Since 1 July heating degree days 5997  
Cooling Degree Days 0 1  
Month to date cooling degree days 6  
Year to date cooling degree days 10  
Moisture  
Dew Point 30 °F    
Average Humidity 67    
Maximum Humidity 93    
Minimum Humidity 53    
Precipitation  
Precipitation 0.00 in 0.10 in 1.63 in (1966)
Month to date precipitation 1.34  
Year to date precipitation 10.75  
Sea Level Pressure  
Sea Level Pressure 30.06 in    
Wind  
Wind Speed 9 mph (NW)    
Max Wind Speed 18 mph    
Max Gust Speed 29 mph    
Visibility 10 miles    
Events      
T = Trace of Precipitation, MM = Missing Value Source: NWS Daily Summary

Daily Weather History Graph

Daily Weather History Graph

Search for Another Location

Airport or City:

Trip Planner

Search our weather history database for the weather conditions in past years. The results will help you decide how hot, cold, wet, or windy it might be!

Date:

Astronomy

May. 12, 2013 Rise Set
Actual Time 6:26 AM EDT 8:56 PM EDT
Civil Twilight 5:54 AM EDT 9:28 PM EDT
Nautical Twilight 5:14 AM EDT 10:08 PM EDT
Astronomical Twilight 4:30 AM EDT 10:53 PM EDT
Moon 8:20 AM EDT (5/12) 11:24 PM EDT (5/12)
Length of Visible Light 15h 34m
Length of Day
14h 30m
Waxing Crescent, 6% of the Moon is Illuminated
May 12
Waxing Crescent
May 18
First Quarter
May 25
Full
May 31
Last Quarter
Jun 8
New

Hourly Weather History & Observations

Time (EDT) Temp. Windchill Dew Point Humidity Pressure Visibility Wind Dir Wind Speed Gust Speed Precip Events Conditions
12:15 AM 41.4 °F - 35.8 °F 81% 29.97 in 10.0 mi Calm Calm - N/A   Scattered Clouds
12:35 AM 41.9 °F 38.2 °F 35.2 °F 77% 29.97 in 10.0 mi West 5.8 mph - N/A   Mostly Cloudy
12:55 AM 42.8 °F 36.6 °F 33.3 °F 69% 29.97 in 10.0 mi West 11.5 mph - N/A   Scattered Clouds
1:15 AM 42.6 °F 36.8 °F 34.0 °F 71% 29.97 in 10.0 mi West 10.4 mph 18.4 mph N/A   Clear
1:35 AM 42.8 °F 37.0 °F 34.2 °F 72% 29.97 in 10.0 mi WNW 10.4 mph 16.1 mph N/A   Clear
1:55 AM 43.2 °F 36.6 °F 32.9 °F 67% 29.98 in 10.0 mi WNW 12.7 mph 24.2 mph N/A   Scattered Clouds
2:15 AM 42.4 °F 37.0 °F 33.3 °F 70% 29.98 in 10.0 mi NW 9.2 mph 24.2 mph N/A   Scattered Clouds
2:35 AM 41.9 °F 34.6 °F 33.1 °F 71% 29.98 in 10.0 mi WNW 13.8 mph 21.9 mph N/A   Clear
2:55 AM 41.4 °F 33.6 °F 32.0 °F 69% 29.98 in 10.0 mi NW 15.0 mph 25.3 mph N/A   Clear
3:15 AM 41.0 °F 34.3 °F 32.0 °F 70% 29.98 in 10.0 mi NW 11.5 mph 19.6 mph N/A   Scattered Clouds
3:35 AM 40.8 °F 36.2 °F 31.8 °F 70% 29.99 in 10.0 mi NW 6.9 mph 19.6 mph N/A   Scattered Clouds
3:56 AM 40.1 °F 32.4 °F 29.1 °F 65% 29.99 in 10.0 mi NW 13.8 mph 28.8 mph N/A   Clear
4:15 AM 39.7 °F 32.7 °F 30.2 °F 69% 29.99 in 10.0 mi NW 11.5 mph 21.9 mph N/A   Clear
4:35 AM 40.1 °F 32.7 °F 31.3 °F 71% 29.99 in 10.0 mi NNW 12.7 mph 21.9 mph N/A   Mostly Cloudy
4:55 AM 39.4 °F 30.4 °F 30.4 °F 70% 29.99 in 10.0 mi NNW 17.3 mph 23.0 mph N/A   Scattered Clouds
5:35 AM 40.1 °F 32.4 °F 31.1 °F 70% 29.99 in 10.0 mi WNW 13.8 mph 25.3 mph N/A   Mostly Cloudy
5:55 AM 39.7 °F 30.6 °F 29.5 °F 67% 29.99 in 10.0 mi NW 18.4 mph 26.5 mph N/A   Mostly Cloudy
6:15 AM 39.4 °F 30.7 °F 28.0 °F 64% 30.00 in 10.0 mi NW 16.1 mph 28.8 mph N/A   Mostly Cloudy
6:35 AM 39.6 °F 30.3 °F 27.9 °F 63% 30.00 in 10.0 mi NNW 18.4 mph 24.2 mph N/A   Overcast
6:55 AM 39.4 °F 31.8 °F 26.4 °F 60% 30.01 in 10.0 mi NW 12.7 mph 24.2 mph N/A   Mostly Cloudy
7:15 AM 39.6 °F 30.6 °F 29.3 °F 67% 30.01 in 10.0 mi NW 17.3 mph 23.0 mph N/A   Mostly Cloudy
7:35 AM 39.2 °F 30.2 °F 27.9 °F 64% 30.02 in 10.0 mi NW 17.3 mph 25.3 mph N/A   Mostly Cloudy
7:55 AM 39.9 °F 32.9 °F 29.3 °F 66% 30.02 in 10.0 mi NW 11.5 mph 21.9 mph N/A   Mostly Cloudy
8:15 AM 39.6 °F 30.6 °F 27.0 °F 61% 30.02 in 10.0 mi NNW 17.3 mph 25.3 mph N/A   Overcast
8:35 AM 40.1 °F 32.4 °F 27.5 °F 61% 30.03 in 10.0 mi NNW 13.8 mph 24.2 mph N/A   Overcast
8:55 AM 39.7 °F 30.9 °F 28.0 °F 63% 30.03 in 10.0 mi NNW 17.3 mph 23.0 mph N/A   Mostly Cloudy
9:16 AM 39.7 °F 31.9 °F 27.7 °F 62% 30.04 in 10.0 mi NW 13.8 mph 19.6 mph N/A   Mostly Cloudy
9:35 AM 40.3 °F 32.6 °F 28.4 °F 63% 30.05 in 10.0 mi NW 13.8 mph 23.0 mph N/A   Overcast
9:55 AM 41.9 °F 33.7 °F 29.8 °F 62% 30.05 in 10.0 mi NW 17.3 mph 25.3 mph N/A   Overcast
10:15 AM 40.3 °F 33.0 °F 28.6 °F 63% 30.05 in 10.0 mi NW 12.7 mph 23.0 mph N/A   Overcast
10:35 AM 41.7 °F 34.4 °F 29.1 °F 61% 30.06 in 10.0 mi NNW 13.8 mph 23.0 mph N/A   Mostly Cloudy
10:55 AM 40.1 °F 31.6 °F 28.8 °F 64% 30.07 in 10.0 mi NW 16.1 mph 23.0 mph N/A   Overcast
11:15 AM 41.0 °F 33.5 °F 28.8 °F 62% 30.07 in 10.0 mi NW 13.8 mph 21.9 mph N/A   Overcast
11:35 AM 40.6 °F 33.0 °F 29.5 °F 64% 30.08 in 10.0 mi NW 13.8 mph 20.7 mph N/A   Overcast
11:55 AM 40.6 °F 34.3 °F 30.0 °F 66% 30.09 in 10.0 mi NW 10.4 mph 17.3 mph N/A   Overcast
12:15 PM 41.0 °F 33.9 °F 29.8 °F 64% 30.09 in 10.0 mi NW 12.7 mph 17.3 mph N/A   Overcast
12:35 PM 40.5 °F 32.5 °F 29.3 °F 64% 30.10 in 10.0 mi NW 15.0 mph 20.7 mph N/A   Overcast
12:55 PM 41.0 °F 33.1 °F 30.4 °F 66% 30.10 in 10.0 mi NNW 15.0 mph 19.6 mph N/A   Overcast
1:15 PM 41.4 °F 34.7 °F 30.0 °F 64% 30.10 in 10.0 mi NNW 11.5 mph 19.6 mph N/A   Overcast
1:35 PM 41.2 °F 33.0 °F 30.6 °F 66% 30.10 in 10.0 mi NW 16.1 mph 23.0 mph N/A   Overcast
1:55 PM 42.6 °F 36.3 °F 30.4 °F 62% 30.11 in 10.0 mi NNW 11.5 mph 23.0 mph N/A   Overcast
2:15 PM 43.0 °F 37.2 °F 30.6 °F 62% 30.11 in 10.0 mi WNW 10.4 mph 17.3 mph N/A   Overcast
2:35 PM 42.4 °F 36.1 °F 30.2 °F 62% 30.11 in 10.0 mi NW 11.5 mph 18.4 mph N/A   Overcast
2:55 PM 43.2 °F 36.6 °F 30.6 °F 61% 30.11 in 10.0 mi WNW 12.7 mph 18.4 mph N/A   Mostly Cloudy
3:15 PM 43.0 °F 36.8 °F 30.6 °F 62% 30.11 in 10.0 mi NW 11.5 mph 18.4 mph N/A   Mostly Cloudy
3:35 PM 42.8 °F 37.5 °F 30.2 °F 61% 30.10 in 10.0 mi WNW 9.2 mph - N/A   Scattered Clouds
3:55 PM 43.5 °F 37.5 °F 31.3 °F 62% 30.11 in 10.0 mi West 11.5 mph - N/A   Clear
4:15 PM 43.7 °F 38.1 °F 31.5 °F 62% 30.11 in 10.0 mi NNW 10.4 mph 16.1 mph N/A   Clear
4:35 PM 43.9 °F 39.3 °F 31.6 °F 62% 30.10 in 10.0 mi West 8.1 mph - N/A   Clear
4:56 PM 43.9 °F 39.3 °F 30.6 °F 59% 30.10 in 10.0 mi West 8.1 mph - N/A   Clear
5:15 PM 43.7 °F 39.1 °F 29.5 °F 57% 30.10 in 10.0 mi WNW 8.1 mph - N/A   Clear
5:35 PM 43.3 °F 38.6 °F 28.8 °F 56% 30.10 in 10.0 mi NNW 8.1 mph - N/A   Clear
5:55 PM 43.5 °F 39.4 °F 28.9 °F 56% 30.10 in 10.0 mi NW 6.9 mph - N/A   Clear
6:15 PM 43.7 °F 38.6 °F 28.8 °F 56% 30.10 in 10.0 mi North 9.2 mph - N/A   Clear
6:35 PM 43.5 °F 41.9 °F 28.6 °F 56% 30.10 in 10.0 mi NNW 3.5 mph - N/A   Clear
6:55 PM 43.3 °F 41.7 °F 28.2 °F 55% 30.10 in 10.0 mi North 3.5 mph - N/A   Clear
7:15 PM 43.0 °F - 27.5 °F 54% 30.10 in 10.0 mi Calm Calm - N/A   Clear
7:35 PM 43.3 °F - 27.9 °F 54% 30.09 in 10.0 mi Calm Calm - N/A   Clear
7:55 PM 43.0 °F - 27.0 °F 53% 30.09 in 10.0 mi Calm Calm - N/A   Clear
8:15 PM 42.4 °F - 27.3 °F 55% 30.09 in 10.0 mi Calm Calm - N/A   Clear
8:35 PM 42.3 °F - 28.9 °F 59% 30.09 in 10.0 mi Calm Calm - N/A   Clear
8:55 PM 40.6 °F - 30.7 °F 68% 30.09 in 10.0 mi Calm Calm - N/A   Clear
9:15 PM 38.1 °F - 30.9 °F 75% 30.09 in 10.0 mi Calm Calm - N/A   Clear
9:35 PM 36.1 °F - 32.0 °F 85% 30.09 in 10.0 mi Calm Calm - N/A   Clear
9:55 PM 35.8 °F - 30.7 °F 82% 30.10 in 10.0 mi Calm Calm - N/A   Clear
10:15 PM 34.2 °F - 31.3 °F 89% 30.10 in 10.0 mi Calm Calm - N/A   Clear
10:35 PM 33.3 °F - 29.3 °F 85% 30.10 in 10.0 mi Calm Calm - N/A   Clear
10:55 PM 32.5 °F - 29.8 °F 90% 30.11 in 10.0 mi Calm Calm - N/A   Clear
11:15 PM 32.9 °F - 30.0 °F 89% 30.11 in 7.0 mi Calm Calm - N/A   Scattered Clouds
11:35 PM 32.5 °F - 30.2 °F 91% 30.11 in 10.0 mi Calm Calm - N/A   Mostly Cloudy
11:56 PM 33.4 °F - 31.6 °F 93% 30.11 in 10.0 mi Calm Calm - N/A   Overcast